Location: Godzisko
(49.9648°N, 19.4576°E)
Time: 06:37:15
(UTC+00:00)

CZ-4C R/B - Pass Details

Date: 20 April 2021
Orbit: 464 x 633 km, 98.0° (Epoch: 05 May)

Event Time Altitude Azimuth Distance (km) Brightness Sun altitude
Exits shadow 00:52:26 25° 139° (SE) 1,282 5.0 -22.1°
Maximum altitude 00:54:49 56° 71° (ENE) 756 4.2 -21.9°
Drops below altitude 10° 00:59:10 10° 354° (N) 2,031 6.8 -21.5°
Sets 01:01:25 0° 350° (N) 2,943 7.7 -21.3°
